This demonstration page uses our WeatherBlox Daily Observations layout. Learn more.

Left ArrowRight Arrow

Hourly Observations for July 31, 2015

Temp ( °F °C ) Dew Point ( °F °C ) Humidity (%) Winds ( mph kmh ) Pressure ( in mb ) Visibility ( mi km ) Precip ( " mm )
12:51 am 00:51 Clear 82 27.8 59 15 46 46 E 8 13 29.91 1013 10 16.0934 N/A
1:51 am 01:51 Partly Cloudy 75 23.9 62 16.7 64 64 E 8 13 29.85 1011 10 16.0934 N/A
2:51 am 02:51 Clear 81 27.2 59 15 47 47 ESE 7 11 29.91 1013 10 16.0934 N/A
3:51 am 03:51 Clear 82 27.8 58 14.4 44 44 E 9 15 29.91 1013 10 16.0934 N/A
4:51 am 04:51 Clear 80 26.7 59 15 49 49 ESE 9 15 29.91 1013 10 16.0934 N/A
5:51 am 05:51 Sunny 80 26.7 62 16.7 54 54 ESE 16 26 29.96 1015 10 16.0934 N/A
6:51 am 06:51 Sunny 79 26.1 62 16.7 56 56 E 14 22 30.01 1016 10 16.0934 N/A
7:51 am 07:51 Mostly Sunny 79 26.1 61 16.1 54 54 E 12 19 29.79 1009 10 16.0934 N/A
8:51 am 08:51 Sunny 86 30 58 14.4 39 39 E 14 22 29.87 1012 10 16.0934 N/A
9:51 am 09:51 Sunny 86 30 58 14.4 39 39 ENE 12 19 29.99 1016 10 16.0934 N/A
10:51 am 10:51 Sunny 88 31.1 55 12.8 33 33 ESE 7 11 29.84 1011 10 16.0934 N/A
11:51 am 11:51 Mostly Sunny 80 26.7 58 14.4 47 47 ESE 9 15 29.77 1008 10 16.0934 N/A
12:51 pm 12:51 Sunny 94 34.4 56 13.3 28 28 S 9 15 29.91 1013 10 16.0934 N/A
1:51 pm 13:51 Mostly Sunny 95 35 57 13.9 28 28 S 8 13 29.87 1011 10 16.0934 N/A
2:51 pm 14:51 Partly Cloudy 98 36.7 57 13.9 25 25 E 12 19 29.82 1010 10 16.0934 N/A
3:51 pm 15:51 Sunny 98 36.7 56 13.3 24 24 NE 7 11 29.8 1009 10 16.0934 N/A
4:51 pm 16:51 Sunny 96 35.6 55 12.8 25 25 SE 10 17 29.8 1009 10 16.0934 N/A
5:51 pm 17:51 Partly Cloudy 92 33.3 57 13.9 31 31 NNE 18 30 29.8 1009 10 16.0934 N/A
6:12 pm 18:12 Sunny with Nearby Thunderstorms 92 33.3 57 13.9 31 31 NNE 15 24 29.68 1005 10 16.0934 N/A
6:30 pm 18:30 Partly Cloudy with Nearby Thunderstorms 87 30.6 58 14.4 37 37 WNW 29 46 29.74 1007 9 14.48406 N/A
6:42 pm 18:42 Mostly Cloudy 87 30.6 59 15 39 39 WNW 23 37 29.77 1008 10 16.0934 N/A
6:51 pm 18:51 Partly Cloudy 86 30 59 15 40 40 WNW 17 28 29.87 1011 10 16.0934 N/A
6:58 pm 18:58 Partly Cloudy with Thunderstorms 85 29.4 59 15 42 42 WNW 20 31 29.83 1010 10 16.0934 N/A
7:19 pm 19:19 Mostly Clear with Nearby Thunderstorms 81 27 61 16 51 51 NW 20 31 29.85 1011 10 16.0934 N/A
7:27 pm 19:27 Mostly Clear 80 26.7 61 16.1 52 52 WNW 20 31 29.85 1011 10 16.0934 N/A
7:51 pm 19:51 Clear 80 26.7 61 16.1 52 52 WNW 15 24 29.9 1012 10 16.0934 N/A
8:51 pm 20:51 Clear 76 24.4 62 16.7 62 62 WNW 16 26 29.92 1013 10 16.0934 N/A
9:51 pm 21:51 Mostly Cloudy 77 25 61 16.1 58 58 NNW 13 20 29.94 1014 10 16.0934 N/A
10:51 pm 22:51 Clear 78 25.6 61 16.1 56 56 NW 12 19 29.95 1014 10 16.0934 N/A
11:51 pm 23:51 Mostly Clear 65 18.3 54 12.2 68 68 S 9 15 29.79 1009 10 16.0934 N/A

Powered by AerisWeather